Regional Weather Roundup
Issued by NWS Albany, NY

Home | Current Version | Previous Version | Text Only | Print | Product List | Glossary On
Versions: 1 2 3 4 5 6 7 8 9 10 11 12 13 14 15 16 17 18 19 20 21 22 23 24 25 26 27 28 29 30 31 32 33 34 35 36 37 38 39 40 41 42 43 44 45 46 47 48 49 50
000
ASUS41 KALY 231010
RWRALY

NEW YORK STATE HOURLY WEATHER ROUNDUP
NATIONAL WEATHER SERVICE ALBANY NY
600 AM EDT WED AUG 23 2017

NOTE: "FAIR" INDICATES FEW OR NO CLOUDS BELOW 12,000 FEET WITH NO
SIGNIFICANT WEATHER AND/OR NO OBSTRUCTIONS TO VISIBILITY.

NYZ032-033-038>043-046>054-057>066-NYZ062>081-082-084-231100-
EAST


CITY           SKY/WX    TMP DP  RH WIND       PRES   REMARKS
ALBANY         MOCLDY    67  57  70 NW7       29.78R
GLENS FALLS    PTCLDY    64  55  72 SW6       29.74R
POUGHKEEPSIE   CLEAR     71  69  93 SW6       29.75R
NEWBURGH       MOCLDY    70  70 100 W9        29.78R
MONTGOMERY     CLEAR     69  65  86 SW5       29.77S
WHITE PLAINS   CLOUDY    72  70  93 W8        29.77R
ISLIP          LGT RAIN  73  73 100 W7        29.75S
NEW YORK CITY  CLOUDY    76  71  85 W9        29.75S
CENTRAL PARK   CLOUDY    73  72  96 W5        29.79S
$$

NYZ005>009-017-018-044>046-055-056-231100-
CENTRAL


CITY           SKY/WX    TMP DP  RH WIND       PRES   REMARKS
FULTON         PTCLDY    60  55  83 SW7       29.81R
SYRACUSE       PTCLDY    60  55  83 W12       29.81R
ROME           MOCLDY    60  57  89 W7        29.81R
ELMIRA         CLOUDY    55  54  96 W3        29.86R
BINGHAMTON     CLOUDY    56  53  90 NW6       29.87R
MONTICELLO     MOCLDY    62  60  93 W8        29.84R
$$

NYZ026>034-041>043-087-231100-
NORTH


CITY           SKY/WX    TMP DP  RH WIND       PRES   REMARKS
WATERTOWN      CLEAR     62  54  74 W12       29.77R
FORT DRUM      NOT AVBL
OGDENSBURG     FAIR      59  55  87 SW8       29.73R
MASSENA        MOCLDY    62  57  83 SW10      29.70R
SARANAC LAKE   CLOUDY    57  55  93 SW13G20   29.74R
PLATTSBURGH    CLEAR     65  55  70 W10G16    29.67R
$$

NYZ001>004-010>016-019>021-085-231100-
WEST


CITY           SKY/WX    TMP DP  RH WIND       PRES   REMARKS
NIAGARA FALLS  CLEAR     61  53  75 W9        29.84R
BUFFALO        PTCLDY    61  54  77 W7        29.85R
DUNKIRK        PTCLDY    65  54  67 W6        29.87S
JAMESTOWN      CLEAR     58  53  84 W7        29.91S
WELLSVILLE       N/A     56  52  86 W6        29.91S
ROCHESTER      PTCLDY    57  55  93 W6        29.83S
PENN YAN       CLEAR     55  51  86 S7        29.85S
$$

             KEY
       WCI = WIND CHILL INDEX
       VSB = VISIBILITY
       HX  = HEAT INDEX
$$



USA.gov is the U.S. government's official web portal to all federal, state and local government web resources and services.